Home > Weather > Aalborg > Past weeks

Flag for Denmark Weather for the Past 2 Weeks in Aalborg, Denmark

Now
36 °F

Passing clouds.


Feels Like: 33 °F
Forecast: 27 / 37 °F
Wind: 3 mph from North

Location: Aalborg Airport

Current Time: Feb 12, 2016 at 12:53:26 AM

Latest Report: Feb 11, 2016 at 11:50 PM


Visibility: N/A

Pressure: 29.56 "Hg

Humidity: 75%

Dew point: 28 °F

Location of AalborgLocation

Historic Weather in Aalborg — Graph

°F

Aalborg Temperature Yesterday

Maximum temperature yesterday: 39 °F (at 10:50 AM)
Minimum temperature yesterday: 34 °F (at 8:50 AM)
Average temperature yesterday: 37 °F

High & Low Weather Summary for the Past Weeks

 TemperatureHumidityPressure
High50 °F (Jan 29, 1:20 PM)100% (Jan 29, 10:50 AM)30.01 "Hg (Jan 29, 10:50 AM)
Low30 °F (Feb 4, 9:20 PM)61% (Feb 3, 11:20 AM)28.80 "Hg (Feb 9, 12:20 AM)
Average41 °F86%29.40 "Hg
* Reported Jan 27 10:20 PM — Feb 11 10:50 PM, Aalborg, Weather by CustomWeather, © 2016

Note: Actual official high and low records may vary slightly from our data, if they occured in-between our weather recording intervals... More about our weather records

Advertising

Aalborg Weather History for the Previous 24 Hours

 ConditionsComfort  
Time TempWeatherWind HumidityBarometerVisibility
10:50 PM
Thu, Feb 11
36 °FPassing clouds.2 mph75%29.56 "HgN/A
10:20 PM36 °FPassing clouds.3 mph75%29.56 "HgN/A
9:50 PM36 °FSnow flurries. Passing clouds.5 mph75%29.56 "HgN/A
9:20 PM37 °FSnow flurries. Passing clouds.5 mph75%29.56 "HgN/A
8:50 PM36 °FSnow flurries. Partly cloudy.3 mph81%29.56 "HgN/A
8:20 PM36 °FSnow flurries. Passing clouds.2 mph87%29.56 "HgN/A
7:50 PM36 °FPassing clouds.2 mph81%29.53 "HgN/A
7:20 PM37 °FClear.2 mph75%29.53 "Hg10 mi
6:50 PM37 °FPassing clouds.1 mph75%29.53 "HgN/A
6:20 PM37 °FPassing clouds.1 mph75%29.53 "HgN/A
5:50 PM37 °FClear.2 mph75%29.53 "Hg10 mi
5:20 PM37 °FPassing clouds.3 mph75%29.53 "HgN/A
4:50 PM37 °FPartly sunny.5 mph75%29.50 "HgN/A
4:20 PM39 °FPartly sunny.7 mph70%29.50 "HgN/A
3:50 PM39 °FPartly sunny.6 mph70%29.50 "HgN/A
3:20 PM39 °FPartly sunny.7 mph70%29.47 "HgN/A
2:50 PM39 °FPartly sunny.8 mph75%29.47 "HgN/A
2:20 PM39 °FPartly sunny.8 mph75%29.47 "HgN/A
1:50 PM39 °FBroken clouds.8 mph81%29.47 "HgN/A
1:20 PM39 °FPartly sunny.9 mph81%29.47 "HgN/A
12:50 PM39 °FPartly sunny.8 mph81%29.47 "HgN/A
12:20 PM39 °FBroken clouds.9 mph81%29.47 "HgN/A
11:50 AM39 °FPartly sunny.6 mph81%29.45 "HgN/A
11:20 AM39 °FPartly sunny.5 mph81%29.45 "HgN/A
10:50 AM39 °FPartly sunny.3 mph87%29.45 "HgN/A
10:20 AM37 °FPartly sunny.2 mph93%29.45 "HgN/A
9:50 AM36 °FPartly sunny.2 mph100%29.42 "HgN/A
9:20 AM36 °FPartly sunny.No wind93%29.42 "HgN/A
8:50 AM34 °FPartly sunny.No wind100%29.42 "HgN/A
8:20 AM36 °FScattered clouds.2 mph93%29.39 "HgN/A
7:50 AM36 °FPartly cloudy.1 mph100%29.39 "HgN/A
7:20 AM36 °FPassing clouds.2 mph100%29.39 "HgN/A
6:50 AM36 °FPassing clouds.1 mph100%29.39 "HgN/A
6:20 AM37 °FPassing clouds.1 mph93%29.36 "HgN/A
5:50 AM37 °FPassing clouds.No wind93%29.36 "HgN/A
5:20 AM37 °FPartly cloudy.No wind93%29.36 "HgN/A
4:50 AM37 °FPartly cloudy.2 mph93%29.36 "HgN/A
4:20 AM37 °FPartly cloudy.2 mph93%29.33 "HgN/A
3:50 AM37 °FPassing clouds.1 mph93%29.33 "HgN/A
3:20 AM37 °FPassing clouds.2 mph93%29.33 "HgN/A
2:50 AM37 °FPassing clouds.2 mph93%29.33 "HgN/A
2:20 AM37 °FPassing clouds.2 mph93%29.30 "HgN/A
1:50 AM36 °FPassing clouds.3 mph100%29.30 "HgN/A
1:20 AM36 °FFog.3 mph100%29.30 "Hg2 mi
12:50 AM36 °FFog.3 mph93%29.27 "Hg2 mi
12:20 AM36 °FFog.1 mph100%29.27 "HgN/A
Weather by CustomWeather, © 2016

See weather overviewHow to use our weather pages